Stündliche Wetter Cayo Jutías

Heute, 26 Januar, Dienstag

Zeit Temperatur Niederschläge Wind Luftdruck Luftfeuchtigkeit
00:00 +21°C° 0 mm 4 m/S 761 mmHg 97%
01:00 +21°C° 0 mm 4 m/S 760 mmHg 97%
02:00 +21°C° 0 mm 4 m/S 760 mmHg 97%
03:00 +20°C° 0 mm 3 m/S 760 mmHg 97%
04:00 +20°C° 0 mm 3 m/S 760 mmHg 97%
05:00 +20°C° 0 mm 3 m/S 761 mmHg 97%
06:00 +20°C° 0 mm 3 m/S 761 mmHg 97%
07:00 +24°C° 0 mm 3 m/S 761 mmHg 88%
08:00 +26°C° 0 mm 4 m/S 762 mmHg 79%
09:00 +28°C° 0 mm 4 m/S 762 mmHg 70%
10:00 +29°C° 0 mm 4 m/S 762 mmHg 65%
11:00 +30°C° 0 mm 3 m/S 762 mmHg 61%
12:00 +33°C° 0 mm 3 m/S 762 mmHg 56%
13:00 +31°C° 0 mm 3 m/S 761 mmHg 57%
14:00 +31°C° 0 mm 3 m/S 760 mmHg 58%
15:00 +31°C° 0 mm 3 m/S 760 mmHg 59%
16:00 +29°C° 0 mm 3 m/S 760 mmHg 69%
17:00 +27°C° 0 mm 3 m/S 761 mmHg 78%
18:00 +25°C° 0 mm 3 m/S 761 mmHg 88%
19:00 +23°C° 0 mm 4 m/S 761 mmHg 91%
20:00 +23°C° 0 mm 4 m/S 762 mmHg 94%
21:00 +22°C° 0 mm 4 m/S 762 mmHg 97%
22:00 +22°C° 0 mm 4 m/S 762 mmHg 98%
23:00 +22°C° 0 mm 4 m/S 761 mmHg 98%

Morgen, 27 Januar, Mittwoch

Zeit Temperatur Niederschläge Wind Luftdruck Luftfeuchtigkeit
00:00 +22°C° 0 mm 4 m/S 761 mmHg 98%
01:00 +22°C° 0 mm 4 m/S 761 mmHg 98%
02:00 +22°C° 0 mm 3 m/S 761 mmHg 98%
03:00 +22°C° 0 mm 3 m/S 761 mmHg 98%
04:00 +22°C° 0 mm 3 m/S 761 mmHg 98%
05:00 +22°C° 0 mm 4 m/S 762 mmHg 98%
06:00 +23°C° 0 mm 4 m/S 762 mmHg 97%
07:00 +25°C° 0 mm 4 m/S 763 mmHg 90%
08:00 +26°C° 0 mm 4 m/S 763 mmHg 84%
09:00 +28°C° 0 mm 4 m/S 763 mmHg 77%
10:00 +29°C° 0 mm 3 m/S 763 mmHg 68%
11:00 +31°C° 0 mm 2 m/S 763 mmHg 59%
12:00 +32°C° 0 mm 1 m/S 763 mmHg 51%
13:00 +32°C° 0 mm 2 m/S 763 mmHg 51%
14:00 +32°C° 0 mm 2 m/S 762 mmHg 51%
15:00 +33°C° 0 mm 3 m/S 762 mmHg 51%
16:00 +30°C° 0 mm 3 m/S 762 mmHg 63%
17:00 +27°C° 0 mm 2 m/S 763 mmHg 75%
18:00 +25°C° 0 mm 2 m/S 763 mmHg 86%
19:00 +25°C° 0 mm 2 m/S 763 mmHg 90%
20:00 +24°C° 0 mm 2 m/S 764 mmHg 93%
21:00 +24°C° 0 mm 2 m/S 764 mmHg 96%
22:00 +24°C° 0 mm 2 m/S 764 mmHg 96%
23:00 +23°C° 0 mm 1 m/S 764 mmHg 96%

übermorgen, 28 Januar, Donnerstag

Zeit Temperatur Niederschläge Wind Luftdruck Luftfeuchtigkeit
00:00 +23°C° 0 mm 1 m/S 764 mmHg 97%
01:00 +23°C° 0 mm 1 m/S 764 mmHg 96%
02:00 +23°C° 0 mm 1 m/S 764 mmHg 96%
03:00 +22°C° 0 mm 1 m/S 763 mmHg 96%
04:00 +23°C° 0.1 mm 1 m/S 764 mmHg 96%
05:00 +23°C° 0.1 mm 2 m/S 764 mmHg 96%
06:00 +23°C° 0.1 mm 2 m/S 764 mmHg 96%
07:00 +25°C° 0.2 mm 4 m/S 765 mmHg 88%
08:00 +26°C° 0.2 mm 6 m/S 765 mmHg 81%
09:00 +28°C° 0.2 mm 8 m/S 766 mmHg 74%
10:00 +28°C° 0.1 mm 9 m/S 766 mmHg 75%
11:00 +27°C° 0.1 mm 9 m/S 765 mmHg 76%
12:00 +26°C° 0.1 mm 10 m/S 765 mmHg 78%
13:00 +26°C° 0 mm 10 m/S 765 mmHg 74%
14:00 +24°C° 0 mm 9 m/S 765 mmHg 69%
15:00 +24°C° 0 mm 9 m/S 765 mmHg 65%
16:00 +22°C° 0 mm 9 m/S 765 mmHg 64%
17:00 +21°C° 0 mm 9 m/S 765 mmHg 62%
18:00 +19°C° 0 mm 9 m/S 766 mmHg 61%
19:00 +18°C° 0 mm 9 m/S 766 mmHg 63%
20:00 +18°C° 0 mm 9 m/S 766 mmHg 66%
21:00 +17°C° 0 mm 9 m/S 767 mmHg 68%
22:00 +17°C° 0 mm 8 m/S 766 mmHg 69%
23:00 +16°C° 0 mm 8 m/S 766 mmHg 71%

29 Januar, Freitag

Zeit Temperatur Niederschläge Wind Luftdruck Luftfeuchtigkeit
00:00 +16°C° 0 mm 8 m/S 766 mmHg 72%
01:00 +16°C° 0 mm 8 m/S 766 mmHg 74%
02:00 +16°C° 0 mm 8 m/S 765 mmHg 76%
03:00 +16°C° 0 mm 8 m/S 765 mmHg 78%
04:00 +15°C° 0 mm 8 m/S 765 mmHg 80%
05:00 +15°C° 0 mm 8 m/S 765 mmHg 82%
06:00 +15°C° 0 mm 7 m/S 766 mmHg 85%
07:00 +17°C° 0 mm 7 m/S 766 mmHg 78%
08:00 +20°C° 0 mm 7 m/S 766 mmHg 71%
09:00 +22°C° 0 mm 8 m/S 767 mmHg 64%
10:00 +23°C° 0 mm 8 m/S 766 mmHg 62%
11:00 +24°C° 0 mm 8 m/S 766 mmHg 60%
12:00 +24°C° 0 mm 8 m/S 766 mmHg 58%
13:00 +24°C° 0 mm 8 m/S 765 mmHg 59%
14:00 +24°C° 0 mm 8 m/S 765 mmHg 60%
15:00 +24°C° 0 mm 8 m/S 764 mmHg 60%
16:00 +22°C° 0 mm 8 m/S 764 mmHg 65%
17:00 +21°C° 0 mm 7 m/S 764 mmHg 70%
18:00 +20°C° 0 mm 7 m/S 765 mmHg 75%
19:00 +18°C° 0 mm 7 m/S 765 mmHg 77%
20:00 +17°C° 0 mm 7 m/S 765 mmHg 79%
21:00 +17°C° 0 mm 6 m/S 766 mmHg 81%
22:00 +16°C° 0 mm 6 m/S 765 mmHg 81%
23:00 +16°C° 0 mm 6 m/S 765 mmHg 81%

30 Januar, Samstag

Zeit Temperatur Niederschläge Wind Luftdruck Luftfeuchtigkeit
00:00 +16°C° 0 mm 6 m/S 765 mmHg 81%
01:00 +16°C° 0 mm 6 m/S 764 mmHg 81%
02:00 +15°C° 0 mm 7 m/S 764 mmHg 81%
03:00 +15°C° 0 mm 7 m/S 764 mmHg 81%
04:00 +15°C° 0 mm 7 m/S 764 mmHg 85%
05:00 +15°C° 0 mm 7 m/S 764 mmHg 88%
06:00 +15°C° 0 mm 7 m/S 764 mmHg 92%
07:00 +17°C° 0 mm 7 m/S 764 mmHg 82%
08:00 +20°C° 0 mm 7 m/S 765 mmHg 73%
09:00 +22°C° 0 mm 7 m/S 765 mmHg 63%
10:00 +23°C° 0 mm 6 m/S 764 mmHg 60%
11:00 +24°C° 0 mm 6 m/S 764 mmHg 57%
12:00 +26°C° 0 mm 6 m/S 764 mmHg 53%
13:00 +26°C° 0 mm 6 m/S 763 mmHg 55%
14:00 +26°C° 0 mm 6 m/S 763 mmHg 57%
15:00 +24°C° 0 mm 6 m/S 762 mmHg 60%
16:00 +23°C° 0 mm 5 m/S 762 mmHg 67%
17:00 +21°C° 0 mm 5 m/S 762 mmHg 74%
18:00 +19°C° 0 mm 4 m/S 762 mmHg 81%
19:00 +19°C° 0 mm 4 m/S 763 mmHg 83%
20:00 +18°C° 0 mm 4 m/S 763 mmHg 85%
21:00 +18°C° 0 mm 3 m/S 763 mmHg 87%
22:00 +18°C° 0 mm 3 m/S 763 mmHg 89%
23:00 +18°C° 0 mm 3 m/S 763 mmHg 90%

31 Januar, Sonntag

Zeit Temperatur Niederschläge Wind Luftdruck Luftfeuchtigkeit
00:00 +18°C° 0 mm 3 m/S 763 mmHg 91%
01:00 +18°C° 0 mm 4 m/S 762 mmHg 91%
02:00 +18°C° 0 mm 4 m/S 762 mmHg 91%
03:00 +18°C° 0 mm 4 m/S 762 mmHg 91%
04:00 +18°C° 0 mm 4 m/S 762 mmHg 92%
05:00 +18°C° 0 mm 4 m/S 762 mmHg 94%
06:00 +18°C° 0 mm 4 m/S 762 mmHg 96%
07:00 +20°C° 0 mm 4 m/S 763 mmHg 88%
08:00 +22°C° 0 mm 4 m/S 763 mmHg 81%
09:00 +26°C° 0 mm 4 m/S 764 mmHg 73%
10:00 +27°C° 0 mm 4 m/S 763 mmHg 69%
11:00 +28°C° 0 mm 3 m/S 763 mmHg 64%
12:00 +29°C° 0 mm 3 m/S 762 mmHg 60%
13:00 +29°C° 0.1 mm 3 m/S 762 mmHg 60%
14:00 +29°C° 0.1 mm 3 m/S 762 mmHg 60%
15:00 +29°C° 0.1 mm 4 m/S 761 mmHg 60%
16:00 +27°C° 0.2 mm 4 m/S 762 mmHg 70%
17:00 +25°C° 0.2 mm 3 m/S 762 mmHg 81%
18:00 +22°C° 0.2 mm 3 m/S 762 mmHg 92%
19:00 +22°C° 0.3 mm 3 m/S 763 mmHg 93%
20:00 +21°C° 0.3 mm 3 m/S 763 mmHg 94%
21:00 +21°C° 0.3 mm 3 m/S 763 mmHg 95%
22:00 +21°C° 0.2 mm 3 m/S 763 mmHg 95%
23:00 +21°C° 0.2 mm 3 m/S 763 mmHg 95%
Mehr zeigen

Wir brauchen deine Erlaubnis

Meteoprog und unser Service Anbieter werden persönliche Daten aufbewahren, so wie Cookies, Geräte Bezeichnung oder ähnliche Technologien von deinem Gerät und Prozess, so wie Persönliche Daten Inhalte und Werbungen, genauso wie social Media und den Verkehr zu analysieren.

  • Aufbewahrung und/oder Zugang zu deiner Geräte Informationen.

    Cookies, Geräte Bezeichnung oder andere Informationen, können aufbewahrt oder Zugang zu deinem Gerät erhalten, für den Grund, der oben angegeben wird.

  • Personalisierte Werbung und Inhalte, Messungen, Einblick in das Publikum und Produkt Entwicklung.

    Werbungen und Inhalte können personalisiert werden, basierend auf ein Profil. Mehr Daten können besser personalisierte Werbungen und Inhalte hinzufügen. Werbung und Inhalte können gezeigt und gemessen werden. Einblicke über das Publikum, welche die Werbung gesehen haben und den Inhalt, können abgeleitet werden. So wie Daten können genutzt werden, um es zu verbessern oder die Benutzer Erfahrung zu verbessern das System und die Software.

Wenn du “Ich stimme zu” klickst, erlaubst du uns, die Cookies zu benutzen die Geräte Bezeichnung, den Web oder ähnliche Technologien zu benutzen. Deine Settings, können in deinem Gerät bei deinem Browser geändert werden.

Für den bestimmten Zweck, berechtigten Interessen beruhen darauf, mehr als auf den Inhalt. Du kannst mehr darüber in unseren Privaten und Cookie Politik lesen.